Year,Month,Day,Hour,Minute,Value (Times are PST for windgust in km/hr)
2014,07,03,00,00,3.20
2014,07,03,00,01,9.60
2014,07,03,00,02,9.60
2014,07,03,00,03,6.40
2014,07,03,00,04,4.80
2014,07,03,00,05,6.40
2014,07,03,00,06,4.80
2014,07,03,00,07,1.60
2014,07,03,00,08,3.20
2014,07,03,00,09,3.20
2014,07,03,00,10,4.80
2014,07,03,00,11,4.80
2014,07,03,00,12,1.60
2014,07,03,00,13,4.80
2014,07,03,00,14,6.40
2014,07,03,00,15,6.40
2014,07,03,00,16,4.80
2014,07,03,00,17,1.60
2014,07,03,00,18,1.60
2014,07,03,00,19,1.60
2014,07,03,00,20,3.20
2014,07,03,00,21,1.60
2014,07,03,00,22,1.60
2014,07,03,00,24,3.20
2014,07,03,00,25,6.40
2014,07,03,00,26,4.80
2014,07,03,00,27,3.20
2014,07,03,00,28,4.80
2014,07,03,00,29,3.20
2014,07,03,00,30,4.80
2014,07,03,00,31,4.80
2014,07,03,00,32,3.20
2014,07,03,00,33,3.20
2014,07,03,00,36,3.20
2014,07,03,00,37,1.60
2014,07,03,00,38,1.60
2014,07,03,00,39,1.60
2014,07,03,00,40,3.20
2014,07,03,00,41,4.80
2014,07,03,00,42,4.80
2014,07,03,00,43,4.80
2014,07,03,00,44,8.10
2014,07,03,00,45,6.40
2014,07,03,00,46,8.10
2014,07,03,00,47,3.20
2014,07,03,00,48,3.20
2014,07,03,00,49,1.60
2014,07,03,00,50,8.10
2014,07,03,00,51,8.10
2014,07,03,00,52,6.40
2014,07,03,00,53,4.80
2014,07,03,00,54,4.80
2014,07,03,00,55,4.80
2014,07,03,00,56,6.40
2014,07,03,00,57,6.40
2014,07,03,00,58,3.20
2014,07,03,00,59,4.80
2014,07,03,01,00,8.10
2014,07,03,01,01,8.10
2014,07,03,01,02,3.20
2014,07,03,01,03,4.80
2014,07,03,01,04,6.40
2014,07,03,01,05,1.60
2014,07,03,01,06,4.80
2014,07,03,01,07,4.80
2014,07,03,01,08,1.60
2014,07,03,01,09,3.20
2014,07,03,01,10,4.80
2014,07,03,01,11,6.40
2014,07,03,01,12,4.80
2014,07,03,01,13,4.80
2014,07,03,01,14,4.80
2014,07,03,01,15,4.80
2014,07,03,01,16,3.20
2014,07,03,01,17,1.60
2014,07,03,01,18,1.60
2014,07,03,01,19,1.60
2014,07,03,01,20,3.20
2014,07,03,01,21,1.60
2014,07,03,01,22,4.80
2014,07,03,01,23,4.80
2014,07,03,01,24,4.80
2014,07,03,01,25,4.80
2014,07,03,01,26,3.20
2014,07,03,01,27,6.40
2014,07,03,01,28,6.40
2014,07,03,01,29,6.40
2014,07,03,01,30,4.80
2014,07,03,01,31,3.20
2014,07,03,01,32,4.80
2014,07,03,01,33,4.80
2014,07,03,01,34,4.80
2014,07,03,01,35,1.60
2014,07,03,01,36,3.20
2014,07,03,01,37,3.20
2014,07,03,01,38,3.20
2014,07,03,01,39,4.80
2014,07,03,01,40,6.40
2014,07,03,01,41,4.80
2014,07,03,01,42,3.20
2014,07,03,01,43,3.20
2014,07,03,01,44,3.20
2014,07,03,01,45,3.20
2014,07,03,01,46,4.80
2014,07,03,01,47,3.20
2014,07,03,01,48,1.60
2014,07,03,01,50,1.60
2014,07,03,01,51,1.60
2014,07,03,01,52,1.60
2014,07,03,01,53,4.80
2014,07,03,01,54,4.80
2014,07,03,01,55,3.20
2014,07,03,01,56,1.60
2014,07,03,01,57,3.20
2014,07,03,01,58,4.80
2014,07,03,01,59,4.80
2014,07,03,02,00,4.80
2014,07,03,02,01,3.20
2014,07,03,02,02,1.60
2014,07,03,02,03,1.60
2014,07,03,02,04,3.20
2014,07,03,02,05,3.20
2014,07,03,02,06,3.20
2014,07,03,02,07,4.80
2014,07,03,02,08,4.80
2014,07,03,02,09,4.80
2014,07,03,02,10,3.20
2014,07,03,02,11,1.60
2014,07,03,02,12,3.20
2014,07,03,02,13,3.20
2014,07,03,02,14,3.20
2014,07,03,02,15,1.60
2014,07,03,02,16,3.20
2014,07,03,02,17,4.80
2014,07,03,02,18,4.80
2014,07,03,02,19,4.80
2014,07,03,02,20,3.20
2014,07,03,02,21,4.80
2014,07,03,02,22,4.80
2014,07,03,02,24,6.40
2014,07,03,02,25,6.40
2014,07,03,02,26,3.20
2014,07,03,02,27,1.60
2014,07,03,02,29,3.20
2014,07,03,02,30,1.60
2014,07,03,02,31,3.20
2014,07,03,02,33,3.20
2014,07,03,02,34,3.20
2014,07,03,02,35,1.60
2014,07,03,02,36,4.80
2014,07,03,02,37,3.20
2014,07,03,02,38,1.60
2014,07,03,02,39,3.20
2014,07,03,02,40,3.20
2014,07,03,02,41,4.80
2014,07,03,02,42,4.80
2014,07,03,02,43,1.60
2014,07,03,02,44,1.60
2014,07,03,02,45,1.60
2014,07,03,02,46,4.80
2014,07,03,02,47,4.80
2014,07,03,02,50,1.60
2014,07,03,02,53,4.80
2014,07,03,02,54,4.80
2014,07,03,02,55,3.20
2014,07,03,02,56,3.20
2014,07,03,02,57,3.20
2014,07,03,02,58,1.60
2014,07,03,02,59,1.60
2014,07,03,03,00,1.60
2014,07,03,03,01,3.20
2014,07,03,03,02,3.20
2014,07,03,03,03,3.20
2014,07,03,03,04,3.20
2014,07,03,03,05,1.60
2014,07,03,03,08,3.20
2014,07,03,03,09,3.20
2014,07,03,03,12,1.60
2014,07,03,03,13,3.20
2014,07,03,03,14,3.20
2014,07,03,03,15,4.80
2014,07,03,03,16,6.40
2014,07,03,03,17,3.20
2014,07,03,03,18,6.40
2014,07,03,03,19,6.40
2014,07,03,03,20,6.40
2014,07,03,03,21,6.40
2014,07,03,03,22,4.80
2014,07,03,03,23,6.40
2014,07,03,03,24,6.40
2014,07,03,03,25,6.40
2014,07,03,03,26,6.40
2014,07,03,03,27,6.40
2014,07,03,03,28,6.40
2014,07,03,03,29,6.40
2014,07,03,03,30,4.80
2014,07,03,03,31,8.10
2014,07,03,03,32,6.40
2014,07,03,03,33,1.60
2014,07,03,03,34,6.40
2014,07,03,03,35,4.80
2014,07,03,03,36,8.10
2014,07,03,03,37,9.60
2014,07,03,03,38,6.40
2014,07,03,03,39,16.10
2014,07,03,03,40,11.30
2014,07,03,03,41,9.60
2014,07,03,03,42,9.60
2014,07,03,03,43,8.10
2014,07,03,03,44,8.10
2014,07,03,03,45,11.30
2014,07,03,03,46,8.10
2014,07,03,03,47,9.60
2014,07,03,03,48,11.30
2014,07,03,03,49,9.60
2014,07,03,03,50,16.10
2014,07,03,03,51,16.10
2014,07,03,03,52,16.10
2014,07,03,03,53,14.50
2014,07,03,03,54,11.30
2014,07,03,03,55,17.70
2014,07,03,03,56,11.30
2014,07,03,03,57,11.30
2014,07,03,03,58,17.70
2014,07,03,03,59,14.50
2014,07,03,04,00,19.30
2014,07,03,04,01,17.70
2014,07,03,04,02,16.10
2014,07,03,04,03,19.30
2014,07,03,04,04,17.70
2014,07,03,04,05,16.10
2014,07,03,04,06,16.10
2014,07,03,04,07,17.70
2014,07,03,04,08,16.10
2014,07,03,04,09,12.90
2014,07,03,04,10,8.10
2014,07,03,04,11,8.10
2014,07,03,04,12,9.60
2014,07,03,04,13,8.10
2014,07,03,04,14,9.60
2014,07,03,04,15,9.60
2014,07,03,04,16,11.30
2014,07,03,04,17,11.30
2014,07,03,04,18,16.10
2014,07,03,04,19,12.90
2014,07,03,04,20,9.60
2014,07,03,04,21,11.30
2014,07,03,04,22,11.30
2014,07,03,04,23,14.50
2014,07,03,04,24,14.50
2014,07,03,04,25,11.30
2014,07,03,04,26,12.90
2014,07,03,04,27,11.30
2014,07,03,04,28,9.60
2014,07,03,04,29,11.30
2014,07,03,04,30,11.30
2014,07,03,04,31,9.60
2014,07,03,04,32,6.40
2014,07,03,04,33,4.80
2014,07,03,04,34,3.20
2014,07,03,04,35,4.80
2014,07,03,04,36,6.40
2014,07,03,04,37,6.40
2014,07,03,04,38,3.20
2014,07,03,04,39,8.10
2014,07,03,04,40,9.60
2014,07,03,04,41,9.60
2014,07,03,04,42,8.10
2014,07,03,04,43,9.60
2014,07,03,04,44,11.30
2014,07,03,04,45,9.60
2014,07,03,04,46,14.50
2014,07,03,04,47,14.50
2014,07,03,04,48,11.30
2014,07,03,04,49,12.90
2014,07,03,04,50,11.30
2014,07,03,04,51,9.60
2014,07,03,04,52,9.60
2014,07,03,04,53,8.10
2014,07,03,04,54,9.60
2014,07,03,04,55,9.60
2014,07,03,04,56,11.30
2014,07,03,04,57,11.30
2014,07,03,04,58,11.30
2014,07,03,04,59,6.40
2014,07,03,05,00,6.40
2014,07,03,05,01,8.10
2014,07,03,05,02,6.40
2014,07,03,05,03,4.80
2014,07,03,05,04,4.80
2014,07,03,05,05,4.80
2014,07,03,05,06,4.80
2014,07,03,05,07,4.80
2014,07,03,05,08,4.80
2014,07,03,05,09,3.20
2014,07,03,05,10,3.20
2014,07,03,05,12,6.40
2014,07,03,05,13,3.20
2014,07,03,05,14,3.20
2014,07,03,05,15,8.10
2014,07,03,05,16,8.10
2014,07,03,05,17,8.10
2014,07,03,05,18,8.10
2014,07,03,05,19,6.40
2014,07,03,05,20,6.40
2014,07,03,05,21,6.40
2014,07,03,05,22,4.80
2014,07,03,05,23,3.20
2014,07,03,05,24,1.60
2014,07,03,05,29,1.60
2014,07,03,05,30,3.20
2014,07,03,05,31,3.20
2014,07,03,05,32,4.80
2014,07,03,05,33,4.80
2014,07,03,05,34,6.40
2014,07,03,05,35,6.40
2014,07,03,05,36,6.40
2014,07,03,05,37,4.80
2014,07,03,05,39,1.60
2014,07,03,05,40,6.40
2014,07,03,05,41,4.80
2014,07,03,05,45,1.60
2014,07,03,05,46,1.60
2014,07,03,05,47,1.60
2014,07,03,05,48,1.60
2014,07,03,05,50,1.60
2014,07,03,05,51,1.60
2014,07,03,05,53,1.60
2014,07,03,05,55,3.20
2014,07,03,05,56,3.20
2014,07,03,05,57,1.60
2014,07,03,05,58,1.60
2014,07,03,06,00,1.60
2014,07,03,06,01,8.10
2014,07,03,06,02,8.10
2014,07,03,06,03,11.30
2014,07,03,06,04,16.10
2014,07,03,06,05,11.30
2014,07,03,06,06,12.90
2014,07,03,06,07,11.30
2014,07,03,06,08,11.30
2014,07,03,06,09,16.10
2014,07,03,06,10,14.50
2014,07,03,06,11,14.50
2014,07,03,06,12,11.30
2014,07,03,06,13,19.30
2014,07,03,06,14,14.50
2014,07,03,06,15,16.10
2014,07,03,06,16,17.70
2014,07,03,06,17,16.10
2014,07,03,06,18,14.50
2014,07,03,06,19,12.90
2014,07,03,06,20,16.10
2014,07,03,06,21,14.50
2014,07,03,06,22,20.90
2014,07,03,06,23,16.10
2014,07,03,06,24,19.30
2014,07,03,06,25,14.50
2014,07,03,06,26,11.30
2014,07,03,06,27,16.10
2014,07,03,06,28,14.50
2014,07,03,06,29,12.90
2014,07,03,06,30,11.30
2014,07,03,06,31,17.70
2014,07,03,06,32,16.10
2014,07,03,06,33,17.70
2014,07,03,06,34,11.30
2014,07,03,06,35,11.30
2014,07,03,06,36,12.90
2014,07,03,06,37,12.90
2014,07,03,06,38,14.50
2014,07,03,06,39,8.10
2014,07,03,06,40,12.90
2014,07,03,06,41,11.30
2014,07,03,06,42,11.30
2014,07,03,06,43,12.90
2014,07,03,06,44,14.50
2014,07,03,06,45,14.50
2014,07,03,06,46,11.30
2014,07,03,06,47,9.60
2014,07,03,06,48,11.30
2014,07,03,06,49,9.60
2014,07,03,06,50,16.10
2014,07,03,06,51,16.10
2014,07,03,06,52,16.10
2014,07,03,06,53,14.50
2014,07,03,06,54,16.10
2014,07,03,06,55,16.10
2014,07,03,06,56,16.10
2014,07,03,06,57,16.10
2014,07,03,06,58,11.30
2014,07,03,06,59,11.30
2014,07,03,07,00,14.50
2014,07,03,07,01,14.50
2014,07,03,07,02,12.90
2014,07,03,07,03,11.30
2014,07,03,07,04,16.10
2014,07,03,07,05,14.50
2014,07,03,07,06,11.30
2014,07,03,07,07,9.60
2014,07,03,07,08,11.30
2014,07,03,07,09,11.30
2014,07,03,07,10,14.50
2014,07,03,07,11,14.50
2014,07,03,07,12,11.30
2014,07,03,07,13,11.30
2014,07,03,07,14,6.40
2014,07,03,07,15,14.50
2014,07,03,07,16,11.30
2014,07,03,07,17,16.10
2014,07,03,07,18,16.10
2014,07,03,07,19,11.30
2014,07,03,07,20,14.50
2014,07,03,07,21,14.50
2014,07,03,07,22,12.90
2014,07,03,07,23,11.30
2014,07,03,07,24,12.90
2014,07,03,07,25,8.10
2014,07,03,07,26,14.50
2014,07,03,07,27,9.60
2014,07,03,07,28,11.30
2014,07,03,07,29,14.50
2014,07,03,07,30,14.50
2014,07,03,07,31,9.60
2014,07,03,07,32,14.50
2014,07,03,07,33,11.30
2014,07,03,07,34,11.30
2014,07,03,07,35,9.60
2014,07,03,07,36,9.60
2014,07,03,07,37,9.60
2014,07,03,07,38,14.50
2014,07,03,07,39,12.90
2014,07,03,07,40,14.50
2014,07,03,07,41,14.50
2014,07,03,07,42,9.60
2014,07,03,07,43,9.60
2014,07,03,07,44,9.60
2014,07,03,07,45,11.30
2014,07,03,07,46,6.40
2014,07,03,07,47,8.10
2014,07,03,07,48,9.60
2014,07,03,07,49,14.50
2014,07,03,07,50,6.40
2014,07,03,07,51,9.60
2014,07,03,07,52,9.60
2014,07,03,07,53,14.50
2014,07,03,07,54,16.10
2014,07,03,07,55,12.90
2014,07,03,07,56,14.50
2014,07,03,07,57,11.30
2014,07,03,07,58,14.50
2014,07,03,07,59,11.30
2014,07,03,08,00,9.60
2014,07,03,08,01,19.30
2014,07,03,08,02,16.10
2014,07,03,08,03,14.50
2014,07,03,08,04,11.30
2014,07,03,08,05,16.10
2014,07,03,08,06,20.90
2014,07,03,08,07,17.70
2014,07,03,08,08,16.10
2014,07,03,08,09,11.30
2014,07,03,08,10,14.50
2014,07,03,08,11,4.80
2014,07,03,08,12,17.70
2014,07,03,08,13,12.90
2014,07,03,08,14,9.60
2014,07,03,08,15,8.10
2014,07,03,08,16,8.10
2014,07,03,08,17,6.40
2014,07,03,08,18,6.40
2014,07,03,08,19,9.60
2014,07,03,08,20,6.40
2014,07,03,08,21,9.60
2014,07,03,08,22,11.30
2014,07,03,08,23,9.60
2014,07,03,08,24,20.90
2014,07,03,08,25,24.20
2014,07,03,08,26,11.30
2014,07,03,08,27,11.30
2014,07,03,08,28,11.30
2014,07,03,08,29,9.60
2014,07,03,08,30,8.10
2014,07,03,08,31,14.50
2014,07,03,08,32,16.10
2014,07,03,08,33,6.40
2014,07,03,08,34,14.50
2014,07,03,08,35,17.70
2014,07,03,08,36,9.60
2014,07,03,08,37,6.40
2014,07,03,08,38,4.80
2014,07,03,08,39,8.10
2014,07,03,08,40,6.40
2014,07,03,08,41,16.10
2014,07,03,08,42,14.50
2014,07,03,08,43,14.50
2014,07,03,08,44,12.90
2014,07,03,08,45,11.30
2014,07,03,08,46,11.30
2014,07,03,08,47,4.80
2014,07,03,08,48,8.10
2014,07,03,08,49,11.30
2014,07,03,08,50,9.60
2014,07,03,08,51,9.60
2014,07,03,08,52,9.60
2014,07,03,08,53,14.50
2014,07,03,08,54,4.80
2014,07,03,08,55,8.10
2014,07,03,08,56,11.30
2014,07,03,08,57,14.50
2014,07,03,08,58,12.90
2014,07,03,08,59,22.50
2014,07,03,09,00,19.30
2014,07,03,09,01,17.70
2014,07,03,09,02,14.50
2014,07,03,09,03,17.70
2014,07,03,09,04,9.60
2014,07,03,09,05,6.40
2014,07,03,09,06,9.60
2014,07,03,09,07,4.80
2014,07,03,09,08,8.10
2014,07,03,09,09,19.30
2014,07,03,09,10,11.30
2014,07,03,09,11,4.80
2014,07,03,09,12,6.40
2014,07,03,09,13,8.10
2014,07,03,09,14,17.70
2014,07,03,09,15,20.90
2014,07,03,09,16,16.10
2014,07,03,09,17,8.10
2014,07,03,09,18,14.50
2014,07,03,09,19,19.30
2014,07,03,09,20,17.70
2014,07,03,09,21,17.70
2014,07,03,09,22,19.30
2014,07,03,09,23,17.70
2014,07,03,09,24,9.60
2014,07,03,09,25,9.60
2014,07,03,09,26,11.30
2014,07,03,09,27,11.30
2014,07,03,09,28,14.50
2014,07,03,09,29,12.90
2014,07,03,09,30,9.60
2014,07,03,09,31,19.30
2014,07,03,09,32,17.70
2014,07,03,09,33,8.10
2014,07,03,09,34,14.50
2014,07,03,09,35,17.70
2014,07,03,09,36,22.50
2014,07,03,09,37,22.50
2014,07,03,09,38,17.70
2014,07,03,09,39,11.30
2014,07,03,09,40,17.70
2014,07,03,09,41,16.10
2014,07,03,09,42,14.50
2014,07,03,09,43,9.60
2014,07,03,09,44,6.40
2014,07,03,09,45,6.40
2014,07,03,09,46,8.10
2014,07,03,09,47,11.30
2014,07,03,09,48,16.10
2014,07,03,09,49,17.70
2014,07,03,09,50,19.30
2014,07,03,09,51,16.10
2014,07,03,09,52,14.50
2014,07,03,09,53,14.50
2014,07,03,09,54,12.90
2014,07,03,09,55,16.10
2014,07,03,09,56,8.10
2014,07,03,09,57,8.10
2014,07,03,09,58,8.10
2014,07,03,09,59,14.50
2014,07,03,10,00,17.70
2014,07,03,10,01,4.80
2014,07,03,10,02,11.30
2014,07,03,10,03,16.10
2014,07,03,10,04,11.30
2014,07,03,10,05,6.40
2014,07,03,10,06,6.40
2014,07,03,10,07,4.80
2014,07,03,10,08,16.10
2014,07,03,10,09,16.10
2014,07,03,10,10,16.10
2014,07,03,10,11,9.60
2014,07,03,10,12,12.90
2014,07,03,10,13,16.10
2014,07,03,10,14,16.10
2014,07,03,10,15,12.90
2014,07,03,10,16,22.50
2014,07,03,10,17,20.90
2014,07,03,10,18,20.90
2014,07,03,10,19,16.10
2014,07,03,10,20,19.30
2014,07,03,10,21,29.00
2014,07,03,10,22,25.70
2014,07,03,10,23,11.30
2014,07,03,10,24,11.30
2014,07,03,10,25,11.30
2014,07,03,10,26,11.30
2014,07,03,10,27,11.30
2014,07,03,10,28,4.80
2014,07,03,10,29,4.80
2014,07,03,10,30,1.60
2014,07,03,10,31,6.40
2014,07,03,10,32,16.10
2014,07,03,10,33,16.10
2014,07,03,10,34,14.50
2014,07,03,10,35,6.40
2014,07,03,10,36,4.80
2014,07,03,10,37,8.10
2014,07,03,10,38,17.70
2014,07,03,10,39,9.60
2014,07,03,10,40,9.60
2014,07,03,10,41,4.80
2014,07,03,10,42,17.70
2014,07,03,10,43,14.50
2014,07,03,10,44,4.80
2014,07,03,10,45,11.30
2014,07,03,10,46,17.70
2014,07,03,10,47,14.50
2014,07,03,10,48,17.70
2014,07,03,10,49,17.70
2014,07,03,10,50,19.30
2014,07,03,10,51,9.60
2014,07,03,10,52,14.50
2014,07,03,10,53,14.50
2014,07,03,10,54,9.60
2014,07,03,10,55,22.50
2014,07,03,10,56,25.70
2014,07,03,10,57,17.70
2014,07,03,10,58,14.50
2014,07,03,10,59,9.60
2014,07,03,11,00,8.10
2014,07,03,11,01,14.50
2014,07,03,11,02,11.30
2014,07,03,11,03,9.60
2014,07,03,11,04,8.10
2014,07,03,11,05,8.10
2014,07,03,11,06,1.60
2014,07,03,11,07,12.90
2014,07,03,11,08,6.40
2014,07,03,11,09,6.40
2014,07,03,11,10,8.10
2014,07,03,11,11,16.10
2014,07,03,11,12,17.70
2014,07,03,11,13,19.30
2014,07,03,11,14,19.30
2014,07,03,11,15,14.50
2014,07,03,11,16,14.50
2014,07,03,11,17,11.30
2014,07,03,11,18,8.10
2014,07,03,11,19,11.30
2014,07,03,11,20,11.30
2014,07,03,11,21,11.30
2014,07,03,11,22,8.10
2014,07,03,11,23,16.10
2014,07,03,11,24,9.60
2014,07,03,11,25,9.60
2014,07,03,11,26,8.10
2014,07,03,11,27,6.40
2014,07,03,11,28,6.40
2014,07,03,11,29,3.20
2014,07,03,11,30,8.10
2014,07,03,11,31,9.60
2014,07,03,11,32,9.60
2014,07,03,11,33,4.80
2014,07,03,11,34,9.60
2014,07,03,11,35,16.10
2014,07,03,11,36,17.70
2014,07,03,11,37,22.50
2014,07,03,11,38,20.90
2014,07,03,11,39,25.70
2014,07,03,11,40,25.70
2014,07,03,11,41,14.50
2014,07,03,11,42,6.40
2014,07,03,11,43,11.30
2014,07,03,11,44,20.90
2014,07,03,11,45,16.10
2014,07,03,11,46,9.60
2014,07,03,11,47,9.60
2014,07,03,11,48,14.50
2014,07,03,11,49,11.30
2014,07,03,11,50,4.80
2014,07,03,11,51,16.10
2014,07,03,11,52,14.50
2014,07,03,11,53,14.50
2014,07,03,11,54,17.70
2014,07,03,11,55,9.60
2014,07,03,11,56,6.40
2014,07,03,11,57,4.80
2014,07,03,11,58,4.80
2014,07,03,11,59,20.90
2014,07,03,12,00,22.50
2014,07,03,12,01,22.50
2014,07,03,12,02,19.30
2014,07,03,12,03,17.70
2014,07,03,12,04,14.50
2014,07,03,12,05,17.70
2014,07,03,12,06,16.10
2014,07,03,12,07,16.10
2014,07,03,12,08,22.50
2014,07,03,12,09,24.20
2014,07,03,12,10,27.40
2014,07,03,12,11,20.90
2014,07,03,12,12,20.90
2014,07,03,12,13,22.50
2014,07,03,12,14,19.30
2014,07,03,12,15,12.90
2014,07,03,12,16,14.50
2014,07,03,12,17,14.50
2014,07,03,12,18,19.30
2014,07,03,12,19,8.10
2014,07,03,12,20,3.20
2014,07,03,12,21,3.20
2014,07,03,12,22,4.80
2014,07,03,12,23,4.80
2014,07,03,12,24,8.10
2014,07,03,12,25,8.10
2014,07,03,12,26,20.90
2014,07,03,12,27,14.50
2014,07,03,12,28,19.30
2014,07,03,12,29,20.90
2014,07,03,12,30,9.60
2014,07,03,12,31,6.40
2014,07,03,12,32,3.20
2014,07,03,12,33,9.60
2014,07,03,12,34,9.60
2014,07,03,12,35,9.60
2014,07,03,12,36,4.80
2014,07,03,12,37,8.10
2014,07,03,12,38,4.80
2014,07,03,12,39,8.10
2014,07,03,12,40,17.70
2014,07,03,12,41,29.00
2014,07,03,12,42,22.50
2014,07,03,12,43,8.10
2014,07,03,12,44,12.90
2014,07,03,12,45,6.40
2014,07,03,12,46,9.60
2014,07,03,12,47,9.60
2014,07,03,12,48,14.50
2014,07,03,12,49,16.10
2014,07,03,12,50,16.10
2014,07,03,12,51,14.50
2014,07,03,12,52,11.30
2014,07,03,12,53,4.80
2014,07,03,12,54,4.80
2014,07,03,12,55,14.50
2014,07,03,12,56,24.20
2014,07,03,12,57,14.50
2014,07,03,12,58,16.10
2014,07,03,12,59,20.90
2014,07,03,13,00,16.10
2014,07,03,13,01,11.30
2014,07,03,13,02,8.10
2014,07,03,13,03,9.60
2014,07,03,13,04,8.10
2014,07,03,13,05,9.60
2014,07,03,13,06,6.40
2014,07,03,13,07,20.90
2014,07,03,13,08,19.30
2014,07,03,13,09,20.90
2014,07,03,13,10,16.10
2014,07,03,13,11,6.40
2014,07,03,13,12,3.20
2014,07,03,13,13,11.30
2014,07,03,13,14,22.50
2014,07,03,13,15,11.30
2014,07,03,13,16,9.60
2014,07,03,13,17,4.80
2014,07,03,13,18,19.30
2014,07,03,13,19,22.50
2014,07,03,13,20,20.90
2014,07,03,13,21,17.70
2014,07,03,13,22,19.30
2014,07,03,13,23,16.10
2014,07,03,13,24,17.70
2014,07,03,13,25,16.10
2014,07,03,13,26,17.70
2014,07,03,13,27,16.10
2014,07,03,13,28,11.30
2014,07,03,13,29,12.90
2014,07,03,13,30,6.40
2014,07,03,13,31,9.60
2014,07,03,13,32,4.80
2014,07,03,13,33,3.20
2014,07,03,13,34,6.40
2014,07,03,13,35,16.10
2014,07,03,13,36,8.10
2014,07,03,13,37,17.70
2014,07,03,13,38,19.30
2014,07,03,13,39,14.50
2014,07,03,13,40,16.10
2014,07,03,13,41,19.30
2014,07,03,13,42,22.50
2014,07,03,13,43,9.60
2014,07,03,13,44,9.60
2014,07,03,13,45,20.90
2014,07,03,13,46,14.50
2014,07,03,13,47,22.50
2014,07,03,13,48,6.40
2014,07,03,13,49,16.10
2014,07,03,13,50,11.30
2014,07,03,13,51,16.10
2014,07,03,13,52,20.90
2014,07,03,13,53,20.90
2014,07,03,13,54,24.20
2014,07,03,13,55,22.50
2014,07,03,13,56,14.50
2014,07,03,13,57,11.30
2014,07,03,13,58,22.50
2014,07,03,13,59,14.50
2014,07,03,14,00,11.30
2014,07,03,14,01,8.10
2014,07,03,14,02,4.80
2014,07,03,14,03,14.50
2014,07,03,14,04,25.70
2014,07,03,14,05,20.90
2014,07,03,14,06,19.30
2014,07,03,14,07,16.10
2014,07,03,14,08,16.10
2014,07,03,14,09,20.90
2014,07,03,14,10,16.10
2014,07,03,14,11,11.30
2014,07,03,14,12,22.50
2014,07,03,14,13,22.50
2014,07,03,14,14,27.40
2014,07,03,14,15,27.40
2014,07,03,14,16,19.30
2014,07,03,14,17,17.70
2014,07,03,14,18,14.50
2014,07,03,14,19,16.10
2014,07,03,14,20,17.70
2014,07,03,14,21,14.50
2014,07,03,14,22,22.50
2014,07,03,14,23,22.50
2014,07,03,14,24,14.50
2014,07,03,14,25,25.70
2014,07,03,14,26,24.20
2014,07,03,14,27,25.70
2014,07,03,14,28,22.50
2014,07,03,14,29,22.50
2014,07,03,14,30,19.30
2014,07,03,14,31,17.70
2014,07,03,14,32,20.90
2014,07,03,14,33,11.30
2014,07,03,14,34,8.10
2014,07,03,14,35,11.30
2014,07,03,14,36,11.30
2014,07,03,14,37,11.30
2014,07,03,14,38,9.60
2014,07,03,14,39,1.60
2014,07,03,14,41,1.60
2014,07,03,14,42,1.60
2014,07,03,14,43,3.20
2014,07,03,14,44,6.40
2014,07,03,14,45,6.40
2014,07,03,14,46,9.60
2014,07,03,14,47,11.30
2014,07,03,14,48,11.30
2014,07,03,14,49,12.90
2014,07,03,14,50,14.50
2014,07,03,14,51,12.90
2014,07,03,14,52,8.10
2014,07,03,14,53,16.10
2014,07,03,14,54,17.70
2014,07,03,14,55,8.10
2014,07,03,14,56,9.60
2014,07,03,14,57,9.60
2014,07,03,14,58,6.40
2014,07,03,14,59,3.20
2014,07,03,15,00,4.80
2014,07,03,15,01,11.30
2014,07,03,15,02,8.10
2014,07,03,15,03,6.40
2014,07,03,15,04,9.60
2014,07,03,15,05,11.30
2014,07,03,15,06,9.60
2014,07,03,15,07,17.70
2014,07,03,15,08,16.10
2014,07,03,15,09,11.30
2014,07,03,15,10,17.70
2014,07,03,15,11,24.20
2014,07,03,15,12,16.10
2014,07,03,15,13,14.50
2014,07,03,15,14,9.60
2014,07,03,15,15,9.60
2014,07,03,15,16,11.30
2014,07,03,15,17,9.60
2014,07,03,15,18,11.30
2014,07,03,15,19,17.70
2014,07,03,15,20,19.30
2014,07,03,15,21,9.60
2014,07,03,15,22,8.10
2014,07,03,15,23,17.70
2014,07,03,15,24,11.30
2014,07,03,15,25,3.20
2014,07,03,15,26,17.70
2014,07,03,15,27,17.70
2014,07,03,15,28,14.50
2014,07,03,15,29,9.60
2014,07,03,15,30,22.50
2014,07,03,15,31,24.20
2014,07,03,15,32,25.70
2014,07,03,15,33,9.60
2014,07,03,15,34,9.60
2014,07,03,15,35,22.50
2014,07,03,15,36,19.30
2014,07,03,15,37,11.30
2014,07,03,15,38,11.30
2014,07,03,15,39,20.90
2014,07,03,15,40,11.30
2014,07,03,15,41,8.10
2014,07,03,15,42,14.50
2014,07,03,15,43,20.90
2014,07,03,15,44,17.70
2014,07,03,15,45,8.10
2014,07,03,15,46,17.70
2014,07,03,15,47,17.70
2014,07,03,15,48,20.90
2014,07,03,15,49,9.60
2014,07,03,15,50,6.40
2014,07,03,15,51,11.30
2014,07,03,15,52,9.60
2014,07,03,15,53,14.50
2014,07,03,15,54,4.80
2014,07,03,15,55,4.80
2014,07,03,15,56,6.40
2014,07,03,15,57,4.80
2014,07,03,15,58,6.40
2014,07,03,15,59,9.60
2014,07,03,16,00,19.30
2014,07,03,16,01,17.70
2014,07,03,16,02,11.30
2014,07,03,16,03,17.70
2014,07,03,16,04,16.10
2014,07,03,16,05,17.70
2014,07,03,16,06,12.90
2014,07,03,16,07,11.30
2014,07,03,16,08,9.60
2014,07,03,16,09,9.60
2014,07,03,16,10,17.70
2014,07,03,16,11,11.30
2014,07,03,16,12,8.10
2014,07,03,16,13,17.70
2014,07,03,16,14,14.50
2014,07,03,16,15,9.60
2014,07,03,16,16,16.10
2014,07,03,16,17,11.30
2014,07,03,16,18,9.60
2014,07,03,16,19,14.50
2014,07,03,16,20,16.10
2014,07,03,16,21,9.60
2014,07,03,16,22,19.30
2014,07,03,16,23,19.30
2014,07,03,16,24,19.30
2014,07,03,16,25,11.30
2014,07,03,16,26,16.10
2014,07,03,16,27,17.70
2014,07,03,16,28,14.50
2014,07,03,16,29,6.40
2014,07,03,16,30,9.60
2014,07,03,16,31,6.40
2014,07,03,16,32,11.30
2014,07,03,16,33,11.30
2014,07,03,16,34,14.50
2014,07,03,16,35,14.50
2014,07,03,16,36,24.20
2014,07,03,16,37,16.10
2014,07,03,16,38,8.10
2014,07,03,16,39,9.60
2014,07,03,16,40,8.10
2014,07,03,16,41,9.60
2014,07,03,16,42,6.40
2014,07,03,16,43,9.60
2014,07,03,16,44,16.10
2014,07,03,16,45,19.30
2014,07,03,16,46,12.90
2014,07,03,16,47,6.40
2014,07,03,16,48,14.50
2014,07,03,16,49,14.50
2014,07,03,16,50,11.30
2014,07,03,16,51,11.30
2014,07,03,16,52,11.30
2014,07,03,16,53,9.60
2014,07,03,16,54,6.40
2014,07,03,16,55,8.10
2014,07,03,16,56,12.90
2014,07,03,16,57,11.30
2014,07,03,16,58,6.40
2014,07,03,16,59,8.10
2014,07,03,17,00,16.10
2014,07,03,17,01,9.60
2014,07,03,17,02,9.60
2014,07,03,17,03,9.60
2014,07,03,17,04,3.20
2014,07,03,17,05,8.10
2014,07,03,17,06,8.10
2014,07,03,17,07,11.30
2014,07,03,17,08,9.60
2014,07,03,17,09,6.40
2014,07,03,17,10,4.80
2014,07,03,17,11,4.80
2014,07,03,17,12,1.60
2014,07,03,17,13,3.20
2014,07,03,17,14,6.40
2014,07,03,17,15,17.70
2014,07,03,17,17,14.50
2014,07,03,17,18,16.10
2014,07,03,17,19,6.40
2014,07,03,17,20,6.40
2014,07,03,17,21,4.80
2014,07,03,17,22,12.90
2014,07,03,17,23,16.10
2014,07,03,17,24,14.50
2014,07,03,17,25,16.10
2014,07,03,17,26,9.60
2014,07,03,17,27,9.60
2014,07,03,17,28,11.30
2014,07,03,17,29,19.30
2014,07,03,17,30,14.50
2014,07,03,17,31,8.10
2014,07,03,17,32,16.10
2014,07,03,17,33,11.30
2014,07,03,17,34,11.30
2014,07,03,17,35,8.10
2014,07,03,17,36,8.10
2014,07,03,17,37,3.20
2014,07,03,17,38,9.60
2014,07,03,17,39,3.20
2014,07,03,17,40,4.80
2014,07,03,17,41,8.10
2014,07,03,17,42,8.10
2014,07,03,17,43,4.80
2014,07,03,17,44,11.30
2014,07,03,17,45,19.30
2014,07,03,17,46,11.30
2014,07,03,17,47,16.10
2014,07,03,17,48,16.10
2014,07,03,17,49,6.40
2014,07,03,17,50,11.30
2014,07,03,17,51,17.70
2014,07,03,17,52,14.50
2014,07,03,17,53,16.10
2014,07,03,17,54,19.30
2014,07,03,17,55,17.70
2014,07,03,17,56,19.30
2014,07,03,17,57,16.10
2014,07,03,17,58,14.50
2014,07,03,17,59,9.60
2014,07,03,18,00,11.30
2014,07,03,18,01,20.90
2014,07,03,18,02,17.70
2014,07,03,18,03,14.50
2014,07,03,18,04,14.50
2014,07,03,18,05,9.60
2014,07,03,18,06,12.90
2014,07,03,18,07,4.80
2014,07,03,18,08,8.10
2014,07,03,18,09,17.70
2014,07,03,18,10,17.70
2014,07,03,18,11,16.10
2014,07,03,18,12,19.30